timestamp,wind_dir_avg,wind_spd_avg,wind_spd_max_dir,wind_spd_gust,battery_voltage,lat,long
2023-12-23 00:04:00+00:00,338.0,15.62,338.0,18.34,12.01,47.59359,-54.27349
2023-12-23 00:14:00+00:00,338.0,17.11,337.0,20.48,12.01,47.59359,-54.27349
2023-12-23 00:24:00+00:00,330.0,16.93,333.0,20.76,12.01,47.59359,-54.27349
2023-12-23 00:34:00+00:00,336.0,15.62,342.0,17.84,12.01,47.59359,-54.27349
2023-12-23 00:44:00+00:00,333.0,13.8,333.0,16.27,12.01,47.59359,-54.27349
2023-12-23 00:54:00+00:00,336.0,17.04,337.0,20.4,12.01,47.59359,-54.27349
2023-12-23 01:04:00+00:00,338.0,16.22,337.0,18.64,12.01,47.59359,-54.27349
2023-12-23 01:14:00+00:00,333.0,16.45,329.0,18.62,12.01,47.59359,-54.27349
2023-12-23 01:24:00+00:00,336.0,14.15,330.0,17.07,12.01,47.59359,-54.27349
2023-12-23 01:34:00+00:00,335.0,14.7,328.0,17.02,12.01,47.59359,-54.27349
2023-12-23 01:44:00+00:00,329.0,14.45,327.0,16.07,12.01,47.59359,-54.27349
2023-12-23 01:54:00+00:00,329.0,15.15,324.0,17.99,12.01,47.59359,-54.27349
2023-12-23 02:04:00+00:00,326.0,14.21,326.0,17.44,12.01,47.59359,-54.27349
2023-12-23 02:14:00+00:00,330.0,15.23,327.0,17.81,12.01,47.59359,-54.27349
2023-12-23 02:24:00+00:00,329.0,14.82,325.0,16.53,12.01,47.59359,-54.27349
2023-12-23 02:34:00+00:00,334.0,14.57,336.0,16.32,12.01,47.59359,-54.27349
2023-12-23 02:44:00+00:00,339.0,13.1,349.0,16.66,12.01,47.59359,-54.27349
2023-12-23 02:54:00+00:00,342.0,15.02,345.0,16.68,12.01,47.59359,-54.27349
2023-12-23 03:04:00+00:00,334.0,13.14,340.0,15.1,12.01,47.59359,-54.27349
2023-12-23 03:14:00+00:00,346.0,14.33,347.0,16.01,12.01,47.59359,-54.27349
2023-12-23 03:24:00+00:00,340.0,14.69,341.0,17.93,12.01,47.59359,-54.27349
2023-12-23 03:34:00+00:00,342.0,13.67,337.0,15.69,12.01,47.59359,-54.27349
2023-12-23 03:44:00+00:00,330.0,12.41,331.0,14.23,12.01,47.59359,-54.27349
2023-12-23 03:54:00+00:00,330.0,10.46,337.0,12.65,12.01,47.59359,-54.27349
2023-12-23 04:04:00+00:00,335.0,10.42,336.0,13.14,12.01,47.59359,-54.27349
2023-12-23 04:14:00+00:00,343.0,14.03,338.0,16.82,11.93,47.59359,-54.27349
2023-12-23 04:24:00+00:00,348.0,13.36,342.0,15.24,11.93,47.59359,-54.27349
2023-12-23 04:34:00+00:00,356.0,14.43,357.0,16.34,11.93,47.59359,-54.27349
2023-12-23 04:44:00+00:00,342.0,12.84,345.0,15.23,11.93,47.59359,-54.27349
2023-12-23 04:54:00+00:00,346.0,14.65,352.0,16.41,11.93,47.59359,-54.27349
2023-12-23 05:04:00+00:00,347.0,13.39,349.0,16.31,11.93,47.59359,-54.27349
2023-12-23 05:14:00+00:00,348.0,14.79,344.0,17.55,11.93,47.59359,-54.27349
2023-12-23 05:24:00+00:00,344.0,12.44,344.0,14.01,11.93,47.59359,-54.27349
2023-12-23 05:34:00+00:00,348.0,13.39,347.0,15.25,11.93,47.59359,-54.27349
2023-12-23 05:44:00+00:00,349.0,12.07,352.0,13.72,11.93,47.59359,-54.27349
2023-12-23 05:54:00+00:00,346.0,11.5,354.0,13.45,11.93,47.59359,-54.27349
2023-12-23 06:04:00+00:00,343.0,12.03,337.0,15.36,11.93,47.59359,-54.27349
2023-12-23 06:14:00+00:00,353.0,12.58,358.0,14.51,11.93,47.59359,-54.27349
2023-12-23 06:24:00+00:00,350.0,12.79,348.0,14.57,11.93,47.59359,-54.27349
2023-12-23 06:34:00+00:00,347.0,12.58,349.0,15.22,11.93,47.59359,-54.27349
2023-12-23 06:44:00+00:00,348.0,13.8,349.0,15.84,11.93,47.59359,-54.27349
2023-12-23 06:54:00+00:00,346.0,13.32,348.0,15.0,11.93,47.59359,-54.27349
2023-12-23 07:04:00+00:00,346.0,12.6,349.0,14.78,11.93,47.59359,-54.27349
2023-12-23 07:14:00+00:00,341.0,9.99,350.0,12.28,11.93,47.59359,-54.27349
2023-12-23 07:24:00+00:00,343.0,10.96,349.0,12.96,11.93,47.59359,-54.27349
2023-12-23 07:34:00+00:00,320.0,8.75,310.0,9.96,11.93,47.59359,-54.27349
2023-12-23 07:44:00+00:00,328.0,7.81,326.0,8.86,11.93,47.59359,-54.27349
2023-12-23 07:54:00+00:00,334.0,8.82,343.0,10.79,11.93,47.59359,-54.27349
2023-12-23 08:04:00+00:00,341.0,9.49,334.0,11.04,11.93,47.59359,-54.27349
2023-12-23 08:14:00+00:00,322.0,8.46,322.0,9.48,11.93,47.59359,-54.27349
2023-12-23 08:24:00+00:00,332.0,10.17,335.0,11.81,11.93,47.59359,-54.27349
2023-12-23 08:34:00+00:00,333.0,10.18,329.0,11.64,11.93,47.59359,-54.27349
2023-12-23 08:44:00+00:00,334.0,11.64,339.0,14.35,11.93,47.59359,-54.27349
2023-12-23 08:54:00+00:00,331.0,12.28,329.0,14.14,11.93,47.59359,-54.27349
2023-12-23 09:04:00+00:00,340.0,10.75,336.0,12.0,11.93,47.59359,-54.27349
2023-12-23 09:14:00+00:00,332.0,9.93,332.0,11.68,11.93,47.59359,-54.27349
2023-12-23 09:24:00+00:00,334.0,10.59,329.0,11.76,11.93,47.59359,-54.27349
2023-12-23 09:34:00+00:00,331.0,10.37,327.0,12.0,11.93,47.59359,-54.27349
2023-12-23 09:44:00+00:00,337.0,10.87,339.0,12.92,11.93,47.59359,-54.27349
2023-12-23 09:54:00+00:00,329.0,9.29,326.0,10.98,11.93,47.59359,-54.27349
2023-12-23 10:04:00+00:00,331.0,9.24,325.0,10.47,11.93,47.59359,-54.27349
2023-12-23 10:14:00+00:00,335.0,9.79,331.0,10.97,11.93,47.59359,-54.27349
2023-12-23 10:24:00+00:00,332.0,9.2,335.0,10.46,11.93,47.59359,-54.27349
2023-12-23 10:34:00+00:00,333.0,9.0,334.0,10.92,11.93,47.59359,-54.27349
2023-12-23 10:44:00+00:00,334.0,8.74,330.0,10.32,11.93,47.59359,-54.27349
2023-12-23 10:54:00+00:00,337.0,10.02,331.0,11.32,11.93,47.59359,-54.27349
2023-12-23 11:04:00+00:00,330.0,8.09,333.0,9.49,11.93,47.59359,-54.27349
2023-12-23 11:14:00+00:00,332.0,9.58,330.0,11.02,11.93,47.59359,-54.27349
2023-12-23 11:24:00+00:00,329.0,8.24,332.0,9.31,11.93,47.59359,-54.27349
2023-12-23 11:34:00+00:00,332.0,8.27,328.0,9.59,11.93,47.59359,-54.27349
2023-12-23 11:44:00+00:00,322.0,8.94,318.0,9.83,11.93,47.59359,-54.27349
2023-12-23 11:54:00+00:00,331.0,9.01,329.0,10.02,11.93,47.59359,-54.27349
2023-12-23 12:04:00+00:00,329.0,7.5,330.0,8.76,11.93,47.59359,-54.27349
2023-12-23 12:14:00+00:00,327.0,8.54,331.0,10.23,12.65,47.59359,-54.27349
2023-12-23 12:24:00+00:00,330.0,8.31,331.0,9.16,12.65,47.59359,-54.27349
2023-12-23 12:34:00+00:00,333.0,9.39,339.0,10.99,12.65,47.59359,-54.27349
2023-12-23 12:44:00+00:00,343.0,9.22,344.0,11.11,12.65,47.59359,-54.27349
2023-12-23 12:54:00+00:00,331.0,8.17,329.0,9.67,12.65,47.59359,-54.27349
2023-12-23 13:04:00+00:00,328.0,8.15,322.0,9.29,12.65,47.59359,-54.27349
2023-12-23 13:14:00+00:00,330.0,8.36,324.0,9.52,14.4,47.59359,-54.27349
2023-12-23 13:24:00+00:00,322.0,7.86,323.0,9.18,14.4,47.59359,-54.27349
2023-12-23 13:34:00+00:00,325.0,7.97,323.0,9.12,14.4,47.59359,-54.27349
2023-12-23 13:44:00+00:00,329.0,7.56,324.0,9.08,14.4,47.59359,-54.27349
2023-12-23 13:54:00+00:00,331.0,7.72,331.0,8.58,14.4,47.59359,-54.27349
2023-12-23 14:04:00+00:00,327.0,8.61,323.0,10.34,14.4,47.59359,-54.27349
2023-12-23 14:14:00+00:00,326.0,8.29,334.0,10.43,13.92,47.59359,-54.27349
2023-12-23 14:24:00+00:00,324.0,8.72,332.0,11.85,13.92,47.59359,-54.27349
2023-12-23 14:34:00+00:00,323.0,8.87,322.0,11.33,13.92,47.59359,-54.27349
2023-12-23 14:44:00+00:00,324.0,9.58,322.0,10.36,13.92,47.59359,-54.27349
2023-12-23 14:54:00+00:00,319.0,10.12,322.0,11.84,13.92,47.59359,-54.27349
2023-12-23 15:04:00+00:00,325.0,9.21,329.0,10.76,13.92,47.59359,-54.27349
2023-12-23 15:14:00+00:00,327.0,8.78,330.0,10.26,14.4,47.59359,-54.27349
2023-12-23 15:24:00+00:00,333.0,7.34,336.0,8.59,14.4,47.59359,-54.27349
2023-12-23 15:34:00+00:00,336.0,7.9,336.0,9.77,14.4,47.59359,-54.27349
2023-12-23 15:44:00+00:00,334.0,7.52,341.0,8.85,14.4,47.59359,-54.27349
2023-12-23 15:54:00+00:00,325.0,8.46,325.0,9.53,14.4,47.59359,-54.27349
2023-12-23 16:04:00+00:00,338.0,8.61,335.0,9.93,14.4,47.59359,-54.27349
2023-12-23 16:14:00+00:00,322.0,6.94,323.0,8.05,13.53,47.59359,-54.27349
2023-12-23 16:24:00+00:00,342.0,8.71,339.0,9.95,13.53,47.59359,-54.27349
2023-12-23 16:34:00+00:00,309.0,7.7,312.0,10.01,13.53,47.59359,-54.27349
2023-12-23 16:44:00+00:00,321.0,7.53,321.0,9.6,13.53,47.59359,-54.27349
2023-12-23 16:54:00+00:00,333.0,9.05,335.0,10.6,13.53,47.59359,-54.27349
2023-12-23 17:04:00+00:00,328.0,8.41,335.0,10.01,13.53,47.59359,-54.27349
2023-12-23 17:14:00+00:00,328.0,8.72,325.0,9.74,13.53,47.59359,-54.27349
2023-12-23 17:24:00+00:00,328.0,7.34,334.0,9.1,13.53,47.59359,-54.27349
2023-12-23 17:34:00+00:00,332.0,9.18,335.0,11.27,13.53,47.59359,-54.27349
2023-12-23 17:44:00+00:00,325.0,6.64,313.0,7.94,13.53,47.59359,-54.27349
2023-12-23 17:54:00+00:00,334.0,8.76,333.0,10.17,13.53,47.59359,-54.27349
2023-12-23 18:04:00+00:00,329.0,6.72,322.0,8.65,13.53,47.59359,-54.27349
2023-12-23 18:14:00+00:00,333.0,9.19,320.0,10.58,14.4,47.59359,-54.27349
2023-12-23 18:24:00+00:00,337.0,7.31,340.0,9.46,14.4,47.59359,-54.27349
2023-12-23 18:34:00+00:00,334.0,8.53,336.0,10.64,14.4,47.59359,-54.27349
2023-12-23 18:44:00+00:00,333.0,7.48,339.0,8.44,14.4,47.59359,-54.27349
2023-12-23 18:54:00+00:00,338.0,7.84,337.0,8.78,14.4,47.59359,-54.27349
2023-12-23 19:04:00+00:00,321.0,8.05,324.0,9.23,14.4,47.59359,-54.27349
2023-12-23 19:14:00+00:00,325.0,6.57,330.0,7.57,13.68,47.59359,-54.27349
2023-12-23 19:24:00+00:00,335.0,7.32,342.0,9.26,13.68,47.59359,-54.27349
2023-12-23 19:34:00+00:00,333.0,7.45,331.0,8.21,13.68,47.59359,-54.27349
2023-12-23 19:44:00+00:00,336.0,7.04,337.0,7.83,13.68,47.59359,-54.27349
2023-12-23 19:54:00+00:00,329.0,6.38,336.0,7.45,13.68,47.59359,-54.27349
2023-12-23 20:04:00+00:00,337.0,7.48,340.0,8.45,13.68,47.59359,-54.27349
2023-12-23 20:14:00+00:00,325.0,6.0,328.0,6.83,12.57,47.59359,-54.27349
2023-12-23 20:24:00+00:00,323.0,5.8,326.0,7.19,12.57,47.59359,-54.27349
2023-12-23 20:34:00+00:00,320.0,6.2,322.0,7.12,12.57,47.59359,-54.27349
2023-12-23 20:44:00+00:00,323.0,5.58,330.0,6.61,12.57,47.59359,-54.27349
2023-12-23 20:54:00+00:00,332.0,5.36,329.0,6.01,12.57,47.59359,-54.27349
2023-12-23 21:04:00+00:00,335.0,6.17,337.0,7.6,12.57,47.59359,-54.27349
2023-12-23 21:14:00+00:00,331.0,5.4,331.0,6.95,12.41,47.59359,-54.27349
2023-12-23 21:24:00+00:00,327.0,4.75,324.0,5.34,12.41,47.59359,-54.27349
2023-12-23 21:34:00+00:00,343.0,4.36,340.0,5.17,12.41,47.59359,-54.27349
2023-12-23 21:44:00+00:00,328.0,4.19,333.0,4.81,12.41,47.59359,-54.27349
2023-12-23 21:54:00+00:00,321.0,3.02,312.0,3.82,12.41,47.59359,-54.27349
2023-12-23 22:04:00+00:00,297.0,2.3,302.0,3.06,12.41,47.59359,-54.27349
2023-12-23 22:14:00+00:00,297.0,1.93,286.0,2.44,12.41,47.59359,-54.27349
2023-12-23 22:24:00+00:00,282.0,2.1,283.0,2.41,12.41,47.59359,-54.27349
2023-12-23 22:34:00+00:00,260.0,1.72,247.0,2.55,12.41,47.59359,-54.27349
2023-12-23 22:44:00+00:00,285.0,1.77,287.0,2.63,12.41,47.59359,-54.27349
2023-12-23 22:54:00+00:00,268.0,1.49,276.0,2.53,12.41,47.59359,-54.27349
2023-12-23 23:04:00+00:00,260.0,2.49,244.0,3.28,12.41,47.59359,-54.27349
2023-12-23 23:14:00+00:00,248.0,3.69,239.0,4.47,12.41,47.59359,-54.27349
2023-12-23 23:24:00+00:00,254.0,2.75,246.0,3.37,12.41,47.59359,-54.27349
2023-12-23 23:34:00+00:00,257.0,3.78,260.0,4.43,12.41,47.59359,-54.27349
2023-12-23 23:44:00+00:00,271.0,3.84,272.0,4.27,12.41,47.59359,-54.27349
2023-12-23 23:54:00+00:00,276.0,2.98,284.0,3.76,12.41,47.59359,-54.27349
